Location: Zihuatanejo
(17.6330°N, 101.5500°W)
Time: 08:40:17
(UTC-05:00)

ISS - Visible Passes

Search period start: 21 October 2019 00:00
Search period end: 31 October 2019 00:00
Orbit: 411 x 421 km, 51.6° (Epoch: 21 October)

Date Brightness Start Highest point End Pass type
(mag) Time Alt. Az. Time Alt. Az. Time Alt. Az.
21 Oct -2.4 06:40:18 10° SSW 06:43:28 40° SE 06:46:39 10° NE visible
22 Oct -1.1 05:54:01 16° SSE 05:55:01 18° SE 05:57:23 10° E visible
23 Oct -3.2 06:42:08 31° W 06:42:58 37° NW 06:46:07 10° NNE visible
24 Oct -1.2 05:56:54 17° NE 05:56:54 17° NE 05:57:45 10° NE visible
